FW3031 Weather Reports


Display with metric or nautical units.
time (UTC)temp
F
wind
direction
speed
MPH
gust
MPH
rain 1hr
in
rain 24hr
in
rain mn
in
humidity
%
barometer
mb
20260903060551 69 190 0.0 0.0 0.00 0.04 0.00 92 1018.0
20260903060108 69 0 0.0 0.0 0.00 0.03 0.00 92 1014.9
20260903060051 69 190 0.0 0.0 0.00 0.04 0.00 92 1017.9
20260903055549 69 190 0.0 0.0 0.00 0.18 0.04 92 1017.8
20260903055049 69 190 0.0 0.0 0.00 0.18 0.04 92 1017.8
20260903054606 69 0 0.0 3.0 0.00 0.18 0.03 91 1014.9
20260903054550 69 190 0.0 2.0 0.00 0.18 0.04 92 1018.0
20260903054051 69 190 0.0 4.0 0.00 0.18 0.04 92 1018.1
20260903053549 69 190 1.0 4.0 0.00 0.18 0.04 92 1018.0
20260903053113 70 190 1.0 3.0 0.00 0.18 0.03 91 1014.9
20260903053049 70 190 1.0 4.0 0.00 0.18 0.04 92 1018.0
20260903052549 70 190 0.0 0.0 0.00 0.18 0.04 91 1017.8
20260903052048 70 190 0.0 0.0 0.00 0.18 0.04 91 1017.9
20260903051611 70 0 0.0 0.0 0.00 0.18 0.03 91 1014.9
20260903051554 70 190 0.0 0.0 0.00 0.18 0.04 91 1017.9
20260903051050 70 190 0.0 0.0 0.00 0.18 0.04 91 1017.8
20260903050550 70 190 0.0 0.0 0.00 0.18 0.04 91 1017.8
20260903050111 70 0 0.0 3.0 0.00 0.18 0.03 91 1014.9
20260903050049 70 190 0.0 3.0 0.00 0.18 0.04 91 1017.9
20260903045548 70 190 1.0 3.0 0.00 0.28 0.04 91 1017.9
20260903045050 70 190 0.0 0.0 0.00 0.28 0.04 91 1018.0
20260903044607 71 0 0.0 1.0 0.00 0.29 0.03 90 1015.0
20260903044549 70 190 0.0 0.0 0.00 0.28 0.04 90 1017.9
20260903044048 71 190 0.0 1.0 0.00 0.28 0.04 90 1017.8
20260903043547 71 190 0.0 1.0 0.00 0.28 0.04 90 1017.6
20260903043107 71 0 0.0 0.0 0.00 0.29 0.03 90 1014.9
20260903043047 71 190 0.0 0.0 0.00 0.28 0.04 90 1017.7
20260903042547 71 190 0.0 0.0 0.00 0.28 0.04 90 1017.7
20260903042047 71 190 0.0 0.0 0.00 0.28 0.04 90 1017.6
20260903041608 71 0 0.0 0.0 0.00 0.29 0.03 89 1014.6
20260903041547 71 190 0.0 0.0 0.00 0.28 0.04 90 1017.4
20260903041046 71 190 0.0 0.0 0.00 0.28 0.04 89 1017.3
20260903040547 71 190 0.0 0.0 0.00 0.28 0.04 89 1017.3
20260903040108 71 0 0.0 0.0 0.00 0.29 0.03 89 1014.7
20260903040047 71 190 0.0 0.0 0.00 0.28 0.04 89 1017.4
20260903035545 71 190 0.0 0.0 0.00 0.94 0.04 89 1017.4
20260903035045 72 190 0.0 0.0 0.00 0.94 0.04 89 1017.4
20260903034559 72 0 0.0 0.0 0.00 0.94 0.03 88 1014.6
20260903034545 72 190 0.0 0.0 0.00 0.94 0.04 88 1017.3
20260903034046 72 190 0.0 0.0 0.00 0.94 0.04 89 1017.2
20260903033545 72 190 0.0 0.0 0.00 0.94 0.04 88 1017.1
20260903033113 72 0 0.0 0.0 0.00 0.94 0.03 88 1014.4
20260903033045 72 190 0.0 0.0 0.00 0.94 0.04 88 1017.0
20260903032545 72 190 0.0 0.0 0.00 0.94 0.04 87 1016.8
20260903032045 73 190 0.0 0.0 0.00 0.94 0.04 87 1016.8
20260903031604 73 0 0.0 0.0 0.00 0.94 0.03 86 1014.1
20260903031545 73 190 0.0 0.0 0.00 0.94 0.04 87 1016.7
20260903031045 73 190 0.0 0.0 0.00 0.94 0.04 86 1016.6
20260903030546 73 190 0.0 0.0 0.00 0.94 0.04 86 1016.6
20260903030104 73 0 0.0 0.0 0.00 0.94 0.03 85 1013.9
20260903030045 73 190 0.0 0.0 0.00 0.94 0.04 86 1016.4
20260903025544 73 190 0.0 0.0 0.00 0.98 0.04 85 1016.3
20260903025044 73 190 0.0 0.0 0.00 0.98 0.04 84 1016.4
20260903024601 74 0 0.0 0.0 0.00 0.97 0.03 83 1013.7
20260903024545 74 190 0.0 0.0 0.00 0.98 0.04 84 1016.4
20260903024043 74 190 0.0 0.0 0.00 0.98 0.04 83 1016.2
20260903023547 74 190 0.0 0.0 0.00 0.98 0.04 83 1016.2
20260903023106 74 0 0.0 0.0 0.00 0.97 0.03 82 1013.5
20260903023044 74 190 0.0 0.0 0.00 0.98 0.04 82 1016.1
20260903022543 74 190 0.0 0.0 0.00 0.98 0.04 82 1015.9
20260903022043 74 190 0.0 0.0 0.00 0.98 0.04 81 1015.9
20260903021610 74 0 0.0 0.0 0.00 0.97 0.03 81 1013.2
20260903021545 74 190 0.0 0.0 0.00 0.98 0.04 81 1015.8
20260903021043 74 190 0.0 0.0 0.00 0.98 0.04 81 1015.6
20260903020542 74 190 0.0 1.0 0.00 0.98 0.04 81 1015.6
20260903020105 74 0 0.0 2.0 0.00 0.97 0.03 81 1012.9
20260903020042 74 190 0.0 1.0 0.00 0.98 0.04 81 1015.4
20260903015542 74 190 0.0 2.0 0.00 0.98 0.04 81 1015.3
20260903015041 75 190 0.0 2.0 0.00 0.98 0.04 81 1015.2
20260903014604 75 0 0.0 0.0 0.00 0.97 0.03 80 1012.6
20260903014554 75 190 0.0 0.0 0.00 0.98 0.04 80 1015.2
20260903014042 75 190 0.0 0.0 0.00 0.98 0.04 80 1015.2
20260903013542 75 190 0.0 0.0 0.00 0.98 0.04 79 1015.1
20260903013106 76 0 0.0 3.0 0.00 0.97 0.03 78 1012.4
20260903013042 76 190 0.0 2.0 0.00 0.98 0.04 79 1014.9
20260903012541 76 190 0.0 3.0 0.00 0.98 0.04 78 1014.8
20260903012041 76 190 1.0 3.0 0.00 0.98 0.04 78 1014.7
20260903011617 76 0 0.0 4.0 0.00 0.97 0.03 77 1012.0
20260903011541 76 190 0.0 4.0 0.00 0.98 0.04 77 1014.6
20260903011042 77 190 0.0 4.0 0.00 0.98 0.04 76 1014.5
20260903010540 77 190 1.0 3.0 0.00 0.98 0.04 76 1014.3
20260903010120 77 0 0.0 0.0 0.00 0.97 0.03 75 1011.8
20260903010040 77 190 0.0 0.0 0.00 0.98 0.04 75 1014.3
20260903005542 77 190 0.0 0.0 0.00 0.98 0.04 75 1014.3
20260903005040 77 190 0.0 0.0 0.00 0.98 0.04 74 1014.2
20260903004610 78 0 0.0 0.0 0.00 0.97 0.03 72 1011.6
20260903004539 78 190 0.0 0.0 0.00 0.98 0.04 73 1014.2
20260903004043 78 190 0.0 0.0 0.00 0.98 0.04 71 1014.2
20260903003539 79 190 0.0 2.0 0.00 0.98 0.04 71 1014.1
20260903003116 79 0 0.0 3.0 0.00 0.97 0.03 69 1011.4
20260903003039 79 190 0.0 3.0 0.00 0.98 0.04 70 1014.0
20260903002539 80 190 1.0 3.0 0.00 0.98 0.04 67 1014.0
20260903002040 80 190 1.0 3.0 0.00 0.98 0.04 66 1014.0
20260903001608 80 190 1.0 4.0 0.00 0.97 0.03 64 1011.5
20260903001540 80 190 0.0 3.0 0.00 0.98 0.04 65 1014.0
20260903001039 80 190 0.0 6.0 0.00 0.98 0.04 68 1014.0
20260903000540 81 190 1.0 6.0 0.00 0.98 0.04 67 1013.9
20260903000107 81 190 3.0 6.0 0.00 0.97 0.03 65 1011.4
20260903000039 81 190 2.0 6.0 0.00 0.98 0.04 66 1013.9
20260902235538 81 190 2.0 6.0 0.00 0.98 0.04 65 1013.8
20260902235038 82 190 2.0 4.0 0.00 0.98 0.04 61 1013.8
20260902234601 82 190 1.0 5.0 0.00 0.97 0.03 59 1011.4
20260902234538 82 190 1.0 4.0 0.00 0.98 0.04 59 1013.9
20260902234037 82 190 0.0 5.0 0.00 0.98 0.04 58 1013.9
20260902233540 82 190 2.0 5.0 0.00 0.98 0.04 57 1013.8
20260902233106 83 190 2.0 4.0 0.00 0.97 0.03 59 1011.3
20260902233037 83 190 1.0 4.0 0.00 0.98 0.04 60 1013.7
20260902232537 83 190 2.0 4.0 0.00 0.98 0.04 59 1013.7
20260902232036 83 190 2.0 4.0 0.00 0.98 0.04 58 1013.7
20260902231606 84 190 2.0 5.0 0.00 0.97 0.03 57 1011.3
20260902231536 83 190 1.0 5.0 0.00 0.98 0.04 58 1013.6
20260902231037 84 190 2.0 5.0 0.00 0.98 0.04 58 1013.5
20260902230537 84 190 1.0 4.0 0.00 0.98 0.04 59 1013.5
20260902230101 85 190 0.0 4.0 0.00 0.97 0.03 58 1011.1
20260902230034 85 190 1.0 4.0 0.00 0.98 0.04 59 1013.5
20260902225534 85 190 0.0 3.0 0.00 0.98 0.04 58 1013.4
20260902225032 84 190 0.0 4.0 0.00 0.98 0.04 58 1013.4
20260902224600 84 190 0.0 5.0 0.00 0.97 0.03 58 1011.1
20260902224532 84 190 0.0 5.0 0.00 0.98 0.04 58 1013.4
20260902224032 84 190 0.0 5.0 0.00 0.98 0.04 59 1013.4
20260902223530 83 190 2.0 5.0 0.00 0.98 0.04 59 1013.4
20260902223131 83 0 0.0 3.0 0.00 0.97 0.03 61 1011.1
20260902223029 83 190 0.0 2.0 0.00 0.98 0.04 61 1013.4
20260902222528 83 190 0.0 3.0 0.00 0.98 0.04 63 1013.5
20260902222028 82 190 0.0 3.0 0.00 0.98 0.04 66 1013.5
20260902221619 82 0 1.0 4.0 0.00 0.97 0.03 65 1011.3
20260902221527 81 190 1.0 3.0 0.00 0.98 0.04 65 1013.5
20260902221026 81 190 1.0 4.0 0.00 0.98 0.04 65 1013.6
20260902220530 81 190 2.0 6.0 0.00 0.98 0.04 64 1013.6
20260902220109 82 190 2.0 6.0 0.00 0.97 0.03 64 1011.4
20260902220026 82 190 2.0 6.0 0.00 0.98 0.04 64 1013.7
20260902215529 83 190 2.0 6.0 0.00 0.98 0.04 64 1013.8
20260902215024 83 190 0.0 3.0 0.00 0.98 0.04 65 1013.9
20260902214614 83 0 0.0 3.0 0.00 0.97 0.03 63 1011.6
20260902214528 83 190 0.0 3.0 0.00 0.98 0.04 63 1014.0
20260902214021 82 190 0.0 4.0 0.00 0.98 0.04 65 1014.1
20260902213520 82 190 1.0 4.0 0.00 0.98 0.04 64 1014.3
20260902213108 82 190 0.0 3.0 0.00 0.97 0.03 64 1012.0
20260902213025 82 190 1.0 3.0 0.00 0.98 0.04 64 1014.4
20260902212518 82 190 0.0 3.0 0.00 0.98 0.04 65 1014.4
20260902212017 81 190 0.0 3.0 0.00 0.98 0.04 67 1014.5
20260902211614 81 0 2.0 3.0 0.00 0.97 0.03 66 1012.4
20260902211518 81 190 1.0 3.0 0.00 0.98 0.04 67 1014.6
20260902211017 80 190 0.0 2.0 0.00 0.98 0.04 66 1014.6
20260902210514 80 190 1.0 4.0 0.00 0.98 0.04 66 1014.6
20260902210106 81 190 0.0 3.0 0.00 0.97 0.03 66 1012.4
20260902210021 80 190 0.0 4.0 0.00 0.98 0.04 68 1014.6
20260902205517 80 190 0.0 3.0 0.00 0.98 0.04 68 1014.7
20260902205012 80 190 0.0 3.0 0.00 0.98 0.04 69 1014.7
20260902204603 80 0 1.0 5.0 0.00 0.97 0.03 66 1012.7
20260902204511 80 190 0.0 5.0 0.00 0.98 0.04 69 1014.9
20260902204010 80 190 1.0 5.0 0.00 0.98 0.04 71 1015.0
20260902203508 80 190 0.0 2.0 0.00 0.98 0.04 67 1015.2
20260902203110 80 0 0.0 2.0 0.00 0.97 0.03 70 1013.1
20260902203007 79 190 0.0 2.0 0.00 0.98 0.04 71 1015.3
20260902202506 79 190 0.0 4.0 0.00 0.98 0.04 69 1015.4
20260902202005 79 190 1.0 4.0 0.00 0.98 0.04 67 1015.6
20260902201634 80 190 0.0 3.0 0.00 0.97 0.03 69 1013.6
20260902201504 80 190 0.0 3.0 0.00 0.98 0.04 70 1015.7
20260902201004 79 190 0.0 2.0 0.00 0.98 0.04 71 1015.9
20260902200502 78 190 0.0 2.0 0.00 0.98 0.04 70 1016.0
20260902200120 79 190 0.0 1.0 0.00 0.97 0.03 69 1013.9
20260902200004 79 190 0.0 1.0 0.00 0.98 0.04 69 1016.1
20260902195600 78 190 0.0 0.0 0.00 0.98 0.04 70 1016.2
20260902195159 78 190 0.0 2.0 0.00 0.98 0.04 73 1016.4
20260902194602 77 0 0.0 3.0 0.00 0.97 0.03 71 1014.3
20260902194557 77 190 0.0 2.0 0.00 0.98 0.04 71 1016.5
20260902194056 77 190 0.0 3.0 0.00 0.98 0.04 74 1016.7
20260902193555 77 190 0.0 2.0 0.00 0.98 0.04 72 1016.7
20260902193108 77 0 0.0 0.0 0.00 0.97 0.03 73 1014.7
20260902193054 77 190 0.0 0.0 0.00 0.98 0.04 73 1016.8
20260902192552 76 190 0.0 1.0 0.00 0.98 0.04 74 1016.9
20260902192056 76 190 0.0 2.0 0.00 0.98 0.04 74 1017.0
20260902191605 76 190 0.0 2.0 0.00 0.97 0.03 74 1014.7
20260902191558 76 190 0.0 2.0 0.00 0.98 0.04 75 1017.0
20260902191050 76 190 0.0 2.0 0.00 0.98 0.04 75 1017.2
20260902190550 76 190 0.0 3.0 0.00 0.98 0.04 74 1017.3
20260902190105 76 0 0.0 3.0 0.00 0.97 0.03 73 1015.1
20260902190053 76 190 0.0 3.0 0.00 0.98 0.04 75 1017.4
20260902185547 76 190 0.0 3.0 0.00 0.98 0.04 74 1017.6
20260902185047 75 190 1.0 3.0 0.00 0.98 0.04 75 1017.6
20260902184600 75 0 1.0 5.0 0.00 0.97 0.03 75 1015.3
20260902184549 75 190 0.0 5.0 0.00 0.98 0.04 76 1017.7
20260902184044 76 190 1.0 5.0 0.00 0.98 0.04 75 1017.9
20260902183543 75 190 0.0 3.0 0.00 0.98 0.04 77 1018.0
20260902183110 75 190 2.0 4.0 0.00 0.97 0.03 77 1015.6
20260902183042 75 190 1.0 4.0 0.00 0.98 0.04 77 1018.1
20260902182541 75 190 1.0 4.0 0.00 0.98 0.04 76 1018.2
20260902182043 75 190 1.0 4.0 0.00 0.98 0.04 78 1018.3
20260902181622 75 190 0.0 5.0 0.00 0.97 0.03 77 1015.9
20260902181541 75 190 0.0 4.0 0.00 0.98 0.04 78 1018.4
20260902181038 75 190 1.0 5.0 0.00 0.98 0.04 78 1018.6
20260902180538 74 190 3.0 6.0 0.00 0.98 0.04 78 1018.7
20260902180104 75 190 3.0 6.0 0.00 0.97 0.03 77 1016.3
20260902180042 75 190 2.0 6.0 0.00 0.98 0.04 77 1018.7
20260902175538 75 190 1.0 6.0 0.00 0.98 0.04 78 1018.8
20260902175037 75 190 1.0 6.0 0.00 0.98 0.04 78 1019.0
20260902174621 75 190 2.0 6.0 0.00 0.97 0.03 77 1016.6
20260902174537 75 190 2.0 5.0 0.00 0.98 0.04 77 1019.1
20260902174037 75 190 0.0 6.0 0.00 0.98 0.04 77 1019.3
20260902173538 74 190 2.0 6.0 0.00 0.98 0.04 77 1019.3
20260902173125 75 190 3.0 6.0 0.00 0.97 0.03 76 1017.0
20260902173039 75 190 1.0 6.0 0.00 0.98 0.04 77 1019.4
20260902172536 75 190 2.0 7.0 0.00 0.98 0.04 76 1019.4
20260902172037 75 190 2.0 7.0 0.00 0.98 0.04 77 1019.5
20260902171630 75 190 3.0 7.0 0.00 0.97 0.03 76 1017.2
20260902171540 75 190 3.0 7.0 0.00 0.98 0.04 76 1019.5
20260902171037 75 190 1.0 6.0 0.00 0.98 0.04 79 1019.5
20260902170534 74 190 2.0 6.0 0.00 0.98 0.04 79 1019.5
20260902170123 74 190 2.0 5.0 0.00 0.97 0.03 79 1017.3
20260902170033 74 190 1.0 6.0 0.00 0.98 0.04 79 1019.6
20260902165533 74 190 3.0 5.0 0.00 0.98 0.04 78 1019.8
20260902165032 74 190 0.0 1.0 0.00 0.98 0.04 78 1019.9
20260902164615 74 0 0.0 3.0 0.00 0.97 0.03 80 1017.6
20260902164534 74 190 0.0 3.0 0.00 0.98 0.04 81 1020.0
20260902164030 73 190 0.0 5.0 0.00 0.98 0.04 80 1020.2
20260902163530 73 190 0.0 5.0 0.00 0.98 0.04 81 1020.2
20260902163103 73 190 0.0 2.0 0.00 0.97 0.03 81 1017.8
20260902163030 73 190 0.0 3.0 0.00 0.98 0.04 82 1020.3
20260902162528 73 190 0.0 0.0 0.00 0.98 0.04 81 1020.4
20260902162031 73 190 0.0 0.0 0.00 0.98 0.04 80 1020.4
20260902161605 73 0 0.0 0.0 0.00 0.97 0.03 79 1018.0
20260902161528 73 190 0.0 0.0 0.00 0.98 0.04 79 1020.5
20260902161028 73 190 0.0 0.0 0.00 0.98 0.04 79 1020.5
20260902160526 72 190 0.0 0.0 0.00 0.98 0.04 79 1020.4
20260902160127 72 190 0.0 0.0 0.00 0.98 0.04 80 1020.3
20260902160109 72 0 0.0 0.0 0.00 0.97 0.03 79 1017.9
20260902155525 72 190 0.0 0.0 0.00 0.98 0.04 80 1020.4
20260902155025 72 190 0.0 0.0 0.00 0.98 0.04 80 1020.4
20260902154618 72 0 0.0 1.0 0.00 0.97 0.03 80 1017.8
20260902154526 72 190 0.0 0.0 0.00 0.98 0.04 80 1020.3
20260902154023 72 190 0.0 1.0 0.00 0.98 0.04 82 1020.3
20260902153524 72 190 0.0 1.0 0.00 0.98 0.04 83 1020.3
20260902153102 72 0 0.0 0.0 0.00 0.97 0.03 81 1017.9
20260902153027 72 190 0.0 0.0 0.00 0.98 0.04 82 1020.3
20260902152522 72 190 0.0 0.0 0.00 0.98 0.04 83 1020.4
20260902152023 72 190 0.0 2.0 0.00 0.98 0.04 83 1020.4
20260902151619 71 0 0.0 2.0 0.00 0.97 0.03 83 1018.1
20260902151521 71 190 0.0 2.0 0.00 0.98 0.04 83 1020.5
20260902151022 71 190 0.0 2.0 0.00 0.98 0.04 83 1020.5
20260902150521 71 190 0.0 2.0 0.00 0.98 0.04 83 1020.4
20260902150110 71 0 0.0 4.0 0.00 0.97 0.03 83 1017.9
20260902150021 71 190 0.0 3.0 0.00 0.98 0.04 83 1020.5
20260902145521 71 190 0.0 4.0 0.00 0.98 0.04 83 1020.5
20260902145024 71 190 0.0 5.0 0.00 0.98 0.04 83 1020.4
20260902144558 71 190 2.0 5.0 0.00 0.97 0.03 83 1018.0
20260902144532 71 190 1.0 5.0 0.00 0.98 0.04 83 1020.4
20260902144019 71 190 0.0 3.0 0.00 0.98 0.04 82 1020.4
20260902143518 71 190 1.0 4.0 0.00 0.98 0.04 83 1020.5
20260902143103 71 190 1.0 5.0 0.00 0.97 0.03 84 1018.0
20260902143018 71 190 0.0 5.0 0.00 0.98 0.04 84 1020.5
20260902142517 71 190 1.0 5.0 0.00 0.98 0.04 84 1020.4
20260902142016 70 190 1.0 5.0 0.00 0.98 0.04 86 1020.3
20260902141602 70 190 1.0 4.0 0.00 0.97 0.03 87 1017.7
20260902141517 70 190 1.0 4.0 0.00 0.98 0.04 88 1020.2
20260902141013 70 190 0.0 4.0 0.00 0.98 0.04 89 1020.1
20260902140512 69 190 0.0 2.0 0.00 0.98 0.04 91 1020.1
20260902140108 69 0 0.0 2.0 0.00 0.97 0.03 90 1017.5
20260902140011 69 190 0.0 2.0 0.00 0.98 0.04 91 1019.9
20260902135510 69 190 0.0 0.0 0.00 0.98 0.04 92 1019.8
20260902135009 68 190 0.0 0.0 0.00 0.98 0.04 93 1019.8
20260902134621 68 0 0.0 0.0 0.00 0.97 0.03 93 1017.3
20260902134511 68 190 0.0 0.0 0.00 0.98 0.04 93 1019.7
20260902134007 68 190 0.0 0.0 0.00 0.98 0.04 93 1019.6
20260902133509 68 190 0.0 0.0 0.00 0.98 0.04 93 1019.6
20260902133105 67 0 0.0 0.0 0.00 0.97 0.03 93 1017.2
20260902133008 67 190 0.0 0.0 0.00 0.98 0.04 93 1019.6
20260902132509 67 190 0.0 0.0 0.00 0.98 0.04 94 1019.4
20260902132008 67 190 0.0 0.0 0.00 0.98 0.04 94 1019.3
20260902131601 67 0 0.0 0.0 0.00 0.97 0.03 94 1016.7
20260902131509 67 190 0.0 0.0 0.00 0.98 0.04 95 1019.2
20260902131007 67 190 0.0 0.0 0.00 0.98 0.04 95 1019.1
20260902130508 67 190 0.0 0.0 0.00 0.98 0.04 95 1019.1
20260902130106 67 0 0.0 0.0 0.00 0.97 0.03 94 1016.5
20260902130006 67 190 0.0 0.0 0.00 0.98 0.04 95 1019.1
20260902125506 66 190 0.0 0.0 0.00 0.98 0.04 95 1019.0
20260902125005 67 190 0.0 1.0 0.00 0.98 0.04 95 1018.9
20260902124608 67 0 0.0 1.0 0.00 0.97 0.03 94 1016.4
20260902124505 66 190 0.0 1.0 0.00 0.98 0.04 95 1018.9
20260902124004 67 190 0.0 0.0 0.00 0.98 0.04 95 1018.9
20260902123504 67 190 0.0 2.0 0.00 0.98 0.04 95 1018.9
20260902123104 67 0 0.0 2.0 0.00 0.97 0.03 94 1016.4
20260902123004 67 190 0.0 2.0 0.00 0.98 0.04 94 1018.8
20260902122504 67 190 0.0 1.0 0.00 0.98 0.04 94 1018.8
20260902122003 67 190 0.0 1.0 0.00 0.98 0.04 94 1018.7
20260902121608 67 190 0.0 1.0 0.00 0.97 0.03 94 1016.3
20260902121503 67 190 0.0 1.0 0.00 0.98 0.04 94 1018.7
20260902121002 67 190 0.0 0.0 0.00 0.98 0.04 94 1018.8
20260902120502 67 190 0.0 0.0 0.00 0.98 0.04 94 1018.8
20260902120109 67 0 0.0 0.0 0.00 0.97 0.03 94 1016.3
20260902120002 67 190 0.0 0.0 0.00 0.98 0.04 94 1018.7
20260902115502 67 190 0.0 0.0 0.00 0.98 0.04 94 1018.7
20260902115002 67 190 0.0 0.0 0.00 0.98 0.04 94 1018.7
20260902114604 67 0 0.0 0.0 0.00 0.97 0.03 94 1016.3
20260902114501 67 190 0.0 0.0 0.00 0.00 0.04 94 1018.6
20260902114001 67 190 0.0 0.0 0.00 0.98 0.04 94 1018.6
20260902113502 67 190 0.0 0.0 0.00 0.98 0.04 94 1018.7
20260902113100 67 0 0.0 0.0 0.00 0.97 0.03 94 1016.3
20260902113001 67 190 0.0 0.0 0.00 0.98 0.04 95 1018.6
20260902112602 67 190 0.0 0.0 0.00 0.98 0.04 94 1018.6
20260902112002 67 190 0.0 1.0 0.00 0.98 0.04 95 1018.7
20260902111613 67 0 0.0 1.0 0.00 0.97 0.03 94 1016.4
20260902111559 67 190 0.0 1.0 0.00 0.98 0.04 94 1018.8
20260902111100 67 190 0.0 0.0 0.00 0.98 0.04 94 1018.7
20260902110600 67 190 0.0 0.0 0.00 0.98 0.04 94 1018.7
20260902110112 67 0 0.0 0.0 0.00 0.97 0.03 94 1016.4
20260902110059 67 190 0.0 0.0 0.00 0.98 0.04 94 1018.6
20260902105601 67 190 0.0 0.0 0.00 0.98 0.04 94 1018.7
20260902105100 67 190 0.0 0.0 0.00 0.98 0.04 94 1018.6
20260902104601 67 0 0.0 0.0 0.00 0.97 0.03 93 1016.4
20260902104058 67 190 0.0 0.0 0.00 0.98 0.04 94 1018.8
20260902103556 67 190 0.0 0.0 0.00 0.98 0.04 94 1018.8
20260902103120 67 0 0.0 0.0 0.00 0.97 0.03 93 1016.5
20260902103103 67 190 0.0 0.0 0.00 0.98 0.04 94 1018.8
20260902102600 67 190 0.0 0.0 0.00 0.98 0.04 94 1018.7
20260902102056 67 190 0.0 0.0 0.00 0.98 0.04 94 1018.7
20260902101616 67 0 0.0 0.0 0.00 0.97 0.03 93 1016.6
20260902101556 67 190 0.0 0.0 0.00 0.98 0.04 94 1018.8
20260902101056 67 190 0.0 0.0 0.00 0.98 0.04 94 1018.8
20260902100557 67 190 0.0 0.0 0.00 0.98 0.04 94 1018.8
20260902100112 67 190 0.0 0.0 0.00 0.98 0.04 94 1018.8
20260902095556 67 190 0.0 0.0 0.00 0.98 0.04 94 1018.8
20260902095054 67 190 0.0 1.0 0.00 0.98 0.04 94 1018.8
20260902094602 67 0 0.0 0.0 0.00 0.97 0.03 93 1016.6
20260902094554 67 190 0.0 0.0 0.00 0.98 0.04 94 1018.7
20260902094054 67 190 0.0 0.0 0.00 0.98 0.04 93 1018.6
20260902093553 67 190 0.0 0.0 0.00 0.98 0.04 93 1018.6
20260902093138 67 0 0.0 0.0 0.00 0.97 0.03 93 1016.4
20260902093053 67 190 0.0 0.0 0.00 0.98 0.04 93 1018.7
20260902092555 67 190 0.0 0.0 0.00 0.98 0.04 94 1018.6
20260902092056 67 190 0.0 0.0 0.00 0.98 0.04 93 1018.7
20260902091607 67 190 0.0 0.0 0.00 0.98 0.04 93 1018.7
20260902091601 67 0 0.0 0.0 0.00 0.97 0.03 92 1016.5
20260902091051 67 190 0.0 0.0 0.00 0.98 0.04 93 1018.8
20260902090551 67 190 0.0 0.0 0.00 0.98 0.04 93 1018.9
20260902090105 67 0 0.0 0.0 0.00 0.97 0.03 92 1016.7
20260902090050 67 190 0.0 0.0 0.00 0.98 0.04 93 1019.0
20260902085552 67 190 0.0 0.0 0.00 0.98 0.04 93 1019.1
20260902085049 67 190 0.0 0.0 0.00 0.98 0.04 93 1019.2
20260902084601 67 0 0.0 0.0 0.00 0.97 0.03 93 1017.0
20260902084549 67 190 0.0 0.0 0.00 0.98 0.04 93 1019.2
20260902084049 67 190 0.0 0.0 0.00 0.98 0.04 93 1019.3
20260902083549 67 190 0.0 0.0 0.00 0.98 0.04 93 1019.3
20260902083100 67 0 0.0 0.0 0.00 0.97 0.03 92 1017.1
20260902083049 67 190 0.0 0.0 0.01 0.98 0.04 93 1019.4
20260902082552 67 190 0.0 0.0 0.01 0.98 0.04 93 1019.3
20260902082049 67 190 0.0 0.0 0.01 0.98 0.04 94 1019.4
20260902081624 67 0 0.0 0.0 0.00 0.97 0.03 93 1017.2
20260902081548 67 190 0.0 0.0 0.01 0.98 0.04 94 1019.5
20260902081048 67 190 0.0 0.0 0.01 0.98 0.04 94 1019.4
20260902080548 67 190 0.0 0.0 0.01 0.98 0.04 93 1019.4
20260902080103 67 190 0.0 0.0 0.01 0.98 0.04 93 1019.4
20260902080100 67 0 0.0 0.0 0.00 0.97 0.03 93 1017.2
20260902075546 67 190 0.0 0.0 0.01 0.98 0.04 93 1019.4
20260902075048 67 190 0.0 0.0 0.01 0.98 0.04 93 1019.2
20260902074607 67 0 0.0 0.0 0.00 0.97 0.03 93 1017.0
20260902074546 67 190 0.0 0.0 0.01 0.98 0.04 93 1019.2
20260902074048 67 190 0.0 0.0 0.01 0.98 0.04 93 1019.1
20260902073545 67 190 0.0 0.0 0.01 0.98 0.04 93 1019.0
20260902073105 67 0 0.0 0.0 0.00 0.96 0.03 93 1017.0
20260902073049 67 190 0.0 0.0 0.00 0.97 0.03 93 1019.1
20260902072545 67 190 0.0 0.0 0.00 0.97 0.03 93 1019.2
20260902072043 67 190 0.0 0.0 0.01 0.97 0.03 93 1019.2
20260902071606 67 0 0.0 0.0 0.00 0.96 0.03 92 1017.2
20260902071556 67 190 0.0 0.0 0.01 0.97 0.03 92 1019.3
20260902071042 67 190 0.0 0.0 0.02 0.97 0.03 93 1019.4
20260902070540 67 190 0.0 2.0 0.02 0.97 0.03 93 1019.5
20260902070104 67 0 0.0 3.0 0.03 0.96 0.03 93 1017.6
20260902070040 67 190 0.0 3.0 0.03 0.97 0.03 93 1019.6
20260902065539 67 190 0.0 3.0 0.05 0.97 0.03 93 1019.7
20260902065038 67 190 1.0 3.0 0.06 0.97 0.03 93 1020.0
20260902064620 67 0 0.0 2.0 0.06 0.96 0.03 92 1018.0
20260902064537 67 190 0.0 2.0 0.06 0.97 0.03 93 1020.1
20260902064036 67 190 0.0 3.0 0.07 0.97 0.03 93 1020.1
20260902063535 67 190 0.0 3.0 0.08 0.97 0.03 93 1020.2
20260902063102 68 190 0.0 2.0 0.08 0.96 0.03 93 1018.2
20260902063043 68 190 0.0 2.0 0.09 0.97 0.03 93 1020.3
20260902062534 68 190 0.0 2.0 0.09 0.97 0.03 93 1020.5
20260902062033 68 190 0.0 2.0 0.09 0.96 0.02 93 1020.6
20260902061606 68 0 0.0 3.0 0.11 0.96 0.02 92 1018.4
20260902061544 68 190 0.0 3.0 0.12 0.96 0.02 93 1020.6
20260902061032 68 190 1.0 3.0 0.13 0.95 0.02 92 1020.7